Flag for Slovakia Weather past 2 weeks in Prešov, Slovakia

Now
55 °F

Clear.


Feels Like: 55 °F
Forecast: 47 / 73 °F
Wind: 1 mph from Northeast

Location: Kosice - Barca

Current Time: Aug 23, 2014 at 12:04:24 AM

Latest Report: Aug 22, 2014 at 11:30 PM


Visibility: 10 mi

Pressure: 30.04 "Hg

Humidity: 82%

Dew point: 50 °F

Location of PrešovLocation

Historic Weather in Prešov — Graph

°F

Prešov temperature yesterday

Maximum temperature yesterday: 72 °F (at 3:00 PM)
Minimum temperature yesterday: 45 °F (at 5:30 AM)
Average temperature yesterday: 59 °F

Past Weeks' High & Low Weather Summary

 TemperatureHumidityPressure
High84 °F (Aug 11, 1:30 PM)100% (Aug 7, 11:00 PM)30.09 "Hg (Aug 7, 11:00 PM)
Low45 °F (Aug 22, 5:30 AM)31% (Aug 22, 1:30 PM)29.71 "Hg (Aug 13, 11:00 PM)
Average66 °F78%29.94 "Hg
* Reported Aug 7 11:00 PM — Aug 22 11:00 PM, Prešov, Weather by CustomWeather, © 2014

Note: Actual official high and low records may vary slightly from our data, if they occured in-between our weather recording intervals... More about our weather records

Advertising

Prešov weather history for previous 24 hours

 ConditionsComfort  
Time TempWeatherWind HumidityBarometerVisibility
11:00 PM
Aug 22
55 °FPassing clouds.3 mph82%30.04 "HgN/A
10:30 PM57 °FClear.2 mph82%30.04 "Hg10 mi
10:00 PM57 °FClear.1 mph82%30.04 "Hg10 mi
9:30 PM59 °FClear.3 mph77%30.04 "Hg10 mi
9:00 PM59 °FClear.2 mph77%30.04 "Hg10 mi
8:30 PM61 °FSunny.1 mph72%30.04 "Hg10 mi
8:00 PM63 °FSunny.1 mph68%30.04 "Hg10 mi
7:30 PM66 °FSunny.2 mph49%30.04 "Hg10 mi
7:00 PM68 °FSunny.3 mph53%30.04 "Hg10 mi
6:30 PM68 °FSunny.6 mph49%30.04 "Hg10 mi
6:00 PM70 °FPassing clouds.5 mph46%30.04 "HgN/A
5:30 PM72 °FPassing clouds.3 mph38%30.04 "HgN/A
5:00 PM72 °FPassing clouds.6 mph38%30.04 "HgN/A
4:30 PM72 °FPassing clouds.5 mph33%30.04 "HgN/A
4:00 PM72 °FPassing clouds.5 mph33%30.04 "HgN/A
3:30 PM72 °FPassing clouds.3 mph33%30.04 "HgN/A
3:00 PM72 °FPassing clouds.5 mph31%30.07 "HgN/A
2:30 PM70 °FSunny.2 mph40%30.07 "Hg10 mi
2:00 PM70 °FSunny.2 mph40%30.07 "Hg10 mi
1:30 PM70 °FPassing clouds.3 mph31%30.07 "HgN/A
1:00 PM70 °FPassing clouds.2 mph33%30.09 "HgN/A
12:30 PM68 °FPassing clouds.3 mph38%30.09 "HgN/A
12:00 PM66 °FPassing clouds.2 mph35%30.09 "HgN/A
11:30 AM66 °FPassing clouds.2 mph46%30.09 "HgN/A
11:00 AM64 °FPassing clouds.2 mph56%30.09 "HgN/A
10:30 AM63 °FPassing clouds.3 mph59%30.09 "HgN/A
10:00 AM61 °FSunny.2 mph68%30.09 "Hg10 mi
9:30 AM59 °FSunny.1 mph77%30.09 "Hg10 mi
9:00 AM57 °FSunny.2 mph77%30.09 "Hg10 mi
8:30 AM55 °FSunny.2 mph77%30.09 "Hg10 mi
8:00 AM52 °FPassing clouds.1 mph88%30.09 "HgN/A
7:30 AM50 °FPassing clouds.2 mph94%30.09 "HgN/A
7:00 AM46 °FFog.2 mph100%30.09 "HgN/A
6:30 AM45 °FLight fog.2 mph93%30.09 "HgN/A
6:00 AM45 °FLight fog.2 mph93%30.09 "HgN/A
5:30 AM45 °FClear.1 mph100%30.09 "Hg10 mi
5:00 AM46 °FClear.2 mph100%30.09 "Hg10 mi
4:30 AM46 °FLight fog.3 mph93%30.09 "HgN/A
4:00 AM46 °FLight fog.3 mph93%30.09 "HgN/A
3:30 AM46 °FLight fog.2 mph100%30.09 "HgN/A
3:00 AM46 °FClear.3 mph93%30.09 "Hg10 mi
2:30 AM48 °FPassing clouds.3 mph87%30.09 "HgN/A
2:00 AM48 °FClear.6 mph94%30.09 "Hg10 mi
1:30 AM50 °FClear.3 mph88%30.09 "Hg10 mi
1:00 AM50 °FClear.8 mph94%30.07 "Hg10 mi
12:30 AM52 °FClear.8 mph88%30.07 "Hg10 mi
12:00 AM52 °FClear.8 mph88%30.07 "Hg10 mi
Weather by CustomWeather, © 2014

See weather overviewHow to use our weather pages